CAPE
0 0 1 2 1 1 1 1 1 1 1 1 1 1 1 1 2 1 1 1 0 0 0 0 0 0 0 0 0 0 0 0 0 0 0 0 0 0 0 4 436 404 277 9 28 190 150
1 2 1 1 1 1 1 1 1 1 1 1 0 2 1 2 1 1 1 1 0 0 0 0 0 0 0 0 0 0 0 0 0 0 0 0 0 0 0 0 192 318 314 19 0 15 284
1 1 0 0 1 1 1 1 1 1 1 0 0 1 1 1 1 1 1 0 0 0 0 0 0 0 0 0 0 0 0 0 0 0 0 0 0 0 0 0 135 108 75 11 0 24 390
0 1 1 1 2 2 2 1 1 2 2 2 2 1 1 1 1 1 0 0 0 0 0 0 0 0 0 0 0 0 0 0 0 0 0 0 0 0 0 0 0 113 69 159 36 396 387
1 1 1 1 2 1 1 2 1 1 0 0 2 1 1 2 2 1 0 0 0 0 0 0 0 0 0 0 0 0 0 0 0 0 0 0 0 0 0 0 0 80 181 169 281 542 336
0 1 1 1 2 1 1 1 0 0 1 2 1 1 1 1 1 0 0 0 0 0 0 0 0 0 0 0 0 0 0 0 0 0 0 0 0 0 0 0 0 15 104 152 267 371 269
0 1 1 1 1 1 0 0 0 1 2 1 1 2 2 0 0 0 0 0 0 0 0 0 0 0 0 0 0 0 0 0 0 0 0 0 0 0 0 0 0 73 97 32 89 195 287
0 2 1 1 1 0 0 0 0 1 1 1 1 1 0 0 0 0 0 0 0 0 0 0 0 0 0 0 0 0 0 0 0 0 0 0 0 0 0 0 0 29 93 36 42 174 108
0 0 0 1 0 0 0 0 0 1 1 1 1 0 0 0 0 0 0 0 0 0 0 0 0 0 0 0 0 0 0 0 0 0 0 0 0 0 0 0 0 40 141 61 32 3 4
0 0 0 0 0 0 0 0 0 0 0 0 0 0 0 0 0 0 0 0 0 0 0 0 0 0 0 0 0 0 0 0 0 0 0 0 0 0 0 0 0 6 57 18 53 26 80
0 0 0 0 0 0 0 0 0 0 0 0 0 0 0 0 0 0 0 0 0 0 20 0 0 0 0 0 0 0 0 0 0 0 0 0 0 0 0 0 0 1 93 27 1 0 17
0 0 0 0 0 0 0 0 0 0 0 0 0 0 0 0 0 0 0 0 0 0 33 0 0 0 0 0 0 0 0 0 5 1 0 0 0 0 0 0 0 9 47 19 3 2 23
0 0 0 0 0 0 0 0 0 0 0 0 0 0 0 0 0 0 0 0 2 86 3 0 0 0 0 0 0 0 0 0 0 2 0 0 0 0 2 2 0 23 4 9 0 0 10
0 0 0 0 0 0 0 0 0 0 0 0 0 0 0 0 0 0 0 6 82 3 4 0 0 0 0 0 0 0 0 0 5 39 0 0 0 2 0 30 3 0 0 1 0 0 3
0 0 0 0 0 0 0 0 0 0 0 0 0 0 0 0 0 0 6 69 1 0 0 0 0 0 0 1 1 1 0 4 0 0 0 3 2 0 0 0 0 5 0 0 11 25 19
0 0 0 0 0 0 0 0 0 0 0 0 0 0 2 0 0 0 57 11 6 0 0 0 0 0 7 0 0 0 10 0 0 0 0 7 0 0 0 0 0 0 0 4 0 14 35
1 0 0 0 0 0 0 0 0 0 0 0 0 2 0 0 0 45 0 52 0 0 0 0 0 0 0 0 0 0 0 0 0 0 0 0 0 0 0 0 0 0 0 3 32 1 61
2 0 0 0 0 0 0 0 0 0 0 0 0 12 0 0 109 84 130 12 0 0 0 8 14 3 0 0 0 0 0 0 0 0 0 0 0 0 0 0 0 0 1 0 0 0 0
3 0 0 0 0 0 0 0 0 0 0 0 0 0 0 0 76 25 0 0 0 0 0 0 0 13 13 0 0 0 0 0 0 0 0 0 0 2 0 0 0 0 0 0 1 5 18
1 0 0 0 0 0 0 0 0 0 0 0 0 0 0 0 0 0 0 0 0 0 0 0 0 8 29 50 38 27 0 0 0 0 0 0 0 3 0 0 0 0 0 0 0 0 8
2 1 0 0 0 0 0 0 0 0 0 0 0 0 0 0 0 0 0 0 0 0 0 0 0 3 29 50 45 33 0 0 0 0 0 0 0 0 0 0 0 0 0 0 0 0 19
2 2 0 0 0 0 0 0 0 0 0 0 0 0 0 0 0 0 0 0 0 0 0 0 0 0 0 61 25 11 3 5 5 0 0 0 2 0 0 0 0 0 0 0 0 0 0
2 2 0 0 0 0 0 0 0 0 0 0 0 0 0 0 0 0 0 0 0 0 0 0 0 0 0 0 0 0 0 0 0 4 0 0 10 0 0 0 0 0 0 0 0 0 0
1 2 0 0 0 0 0 0 0 0 0 0 0 0 0 0 0 0 0 0 0 0 0 0 0 0 0 0 0 0 0 0 0 0 0 0 0 1 0 0 0 0 0 0 0 0 0
2 1 0 0 0 0 0 0 0 0 0 0 0 0 0 0 0 0 0 0 0 0 0 0 0 0 0 0 0 0 0 0 0 0 0 0 0 0 0 3 0 0 0 0 0 0 0
1 1 0 0 0 0 0 0 0 0 0 0 0 0 0 0 0 0 0 0 0 0 0 0 0 0 0 0 0 0 2 0 0 0 0 0 0 0 0 0 0 0 0 0 0 0 0
1 1 0 0 0 0 0 0 0 0 0 0 0 0 0 0 0 0 0 0 0 0 0 0 0 0 0 0 9 12 34 0 1 0 0 0 0 0 0 0 7 0 0 0 0 0 0
1 1 0 0 0 0 0 0 0 0 0 0 0 0 0 0 0 0 0 0 0 0 0 0 0 0 0 0 6 7 1 0 0 5 12 0 0 0 0 6 0 0 0 0 0 0 0
0 1 0 0 0 0 0 0 0 0 0 0 0 0 0 0 1 0 0 0 0 0 0 0 0 0 0 0 0 2 0 0 0 8 0 7 20 33 17 67 6 0 0 0 0 0 0
CIN
0 0 0 0 0 -1 -1 0 0 0 -1 0 0 0 0 0 0 0 0 0 0 0 0 0 0 0 0 0 0 0 0 0 0 0 0 0 0 0 0 -3 -16 -7 -6 -12 -13 -1 -7
0 0 0 0 -1 0 0 0 -1 0 0 -1 0 0 0 0 0 0 0 0 0 0 0 0 0 0 0 0 0 0 0 0 0 0 0 0 0 0 0 0 -7 -4 -3 -9 0 -4 -2
0 0 0 0 0 0 0 0 0 0 0 0 0 0 0 -1 0 -1 0 0 0 0 0 0 0 0 0 0 0 0 0 0 0 0 0 0 0 0 0 0 -5 -7 -3 -25 -1 -18 -3
0 0 0 0 0 -1 -1 0 0 0 0 0 0 0 -1 -1 -1 0 0 0 0 0 0 0 0 0 0 0 0 0 0 0 0 0 0 0 0 0 0 0 0 -14 -11 -3 -11 -3 -8
0 0 0 0 0 0 -1 0 0 0 0 -1 0 0 0 0 0 0 0 0 0 0 0 0 0 0 0 0 0 0 0 0 0 0 0 0 0 0 0 0 0 -10 -5 -11 -3 -5 -9
0 0 -1 0 0 0 0 0 -1 0 0 0 0 0 0 0 0 0 0 0 0 0 0 0 0 0 0 0 0 0 0 0 0 0 0 0 0 0 0 0 0 -19 -4 -6 -7 -4 -2
0 0 0 0 0 0 0 0 0 0 0 0 0 0 0 0 0 0 0 0 0 0 0 0 0 0 0 0 0 0 0 0 0 0 0 0 0 0 0 0 0 -3 -4 -10 -51 -5 -2
0 0 0 0 0 0 0 0 0 0 0 0 0 0 0 0 0 0 0 0 0 0 0 0 0 0 0 0 0 0 0 0 0 0 0 0 0 0 0 0 0 -8 -5 -9 -26 -3 -4
0 0 -1 0 0 0 0 0 0 0 0 0 0 0 0 0 0 0 0 0 0 0 0 0 0 0 0 0 0 0 0 0 0 0 0 0 0 0 0 0 0 -11 -5 -9 -4 -19 -1
0 0 0 0 0 0 0 0 0 0 0 0 0 0 0 0 0 0 0 0 0 0 0 0 0 0 0 0 0 0 0 0 0 0 0 0 0 0 0 0 0 -7 -8 -7 -5 -5 -3
0 0 0 0 0 0 0 0 0 0 0 0 0 0 0 0 0 0 0 0 0 0 -15 0 0 0 0 0 0 0 0 0 0 0 0 0 0 0 0 0 0 -4 -5 -6 -1 0 -23
0 0 0 0 0 0 0 0 0 0 0 0 0 0 0 0 0 0 0 0 0 0 -12 0 0 0 0 0 0 0 0 0 -4 -2 0 0 0 0 0 0 0 -10 -5 -5 -3 -7 -6
0 0 0 0 0 0 0 0 0 0 0 0 0 0 0 0 0 0 0 0 -3 -9 -71 0 0 0 0 0 0 0 0 0 0 -3 0 0 0 0 -3 -2 0 -5 -4 -5 -1 0 -5
0 0 0 0 0 0 0 0 0 0 0 0 0 0 0 0 0 0 0 -104 -17 -10 -49 0 0 0 0 0 0 0 0 0 -3 -12 0 0 0 -4 0 -4 -3 -1 0 -3 0 0 -8
0 0 0 0 0 0 0 0 0 0 0 0 0 0 0 0 0 0 -82 -26 -1 0 0 0 0 0 0 -2 -8 -6 -1 -9 0 0 0 -5 -6 0 0 0 0 -3 0 0 -8 -6 -6
0 0 0 0 0 0 0 0 0 0 0 0 0 0 -4 0 0 -25 -44 -27 -28 0 0 -5 0 0 -14 -5 0 -5 -10 0 0 0 0 -13 -2 0 0 0 0 0 0 -5 0 -18 -7
0 0 0 0 0 0 0 0 0 0 0 0 0 -2 0 0 -15 -54 0 -32 0 0 0 -7 0 0 0 -6 0 -2 0 0 0 0 0 0 -2 0 0 0 0 0 0 -4 -8 -24 -13
0 0 0 0 0 0 0 0 0 0 0 0 0 -7 0 0 -15 -11 -6 -57 0 0 -45 -27 -21 -27 0 0 -18 -1 -6 0 0 0 0 0 0 0 0 0 0 0 -5 0 -3 0 0
0 0 0 0 0 0 0 0 0 0 0 0 0 0 0 0 -16 -33 0 0 0 0 0 0 -6 -22 -4 0 0 -4 0 0 0 0 0 0 0 -2 0 0 0 0 0 0 -7 -13 -6
0 0 0 0 0 0 0 0 0 0 0 0 0 0 0 0 0 0 0 0 0 0 0 0 0 -29 -10 -5 -6 -3 -1 0 0 0 0 0 0 -9 0 0 0 0 0 0 0 0 -6
0 0 0 0 0 0 0 0 0 0 0 0 0 0 0 -1 0 0 0 0 0 0 0 0 0 -45 -14 -3 -2 -4 -1 0 0 0 0 0 0 0 0 0 0 0 0 0 0 0 -11
0 0 0 0 0 0 0 0 0 0 0 0 0 0 0 0 0 0 0 0 0 0 0 0 0 0 0 -4 -17 -9 -12 -15 -3 0 0 0 -2 0 0 0 0 0 0 0 0 0 -2
0 0 0 0 0 0 0 0 0 0 0 0 0 0 0 0 0 0 0 0 0 0 0 0 0 0 0 0 0 0 0 0 0 -38 0 0 -6 0 0 0 0 0 0 0 0 0 -1
0 0 0 0 0 0 0 0 0 0 0 0 0 0 0 0 0 0 0 0 0 0 0 0 0 0 0 0 0 0 0 0 0 0 0 0 0 -3 0 0 0 0 0 0 0 0 0
0 0 0 0 0 0 0 0 0 0 0 0 0 0 0 0 0 0 0 0 0 0 0 0 0 0 0 0 0 0 0 0 0 0 0 0 0 0 0 -3 0 0 0 0 0 0 0
0 0 0 0 0 0 0 0 0 0 0 0 0 0 0 0 0 0 0 0 0 0 0 0 0 0 0 0 -1 0 -2 -1 -1 0 0 0 0 0 0 0 0 -4 0 0 0 0 0
0 0 0 0 0 0 0 0 0 0 0 0 0 0 0 0 0 0 0 0 0 0 0 0 0 0 0 0 -1 -2 -22 -1 -1 0 0 0 0 0 0 0 -3 0 0 0 0 0 0
0 0 0 0 0 0 0 0 0 0 0 0 0 0 0 0 0 0 0 0 0 0 0 0 0 0 0 0 -1 -10 0 0 0 -2 -1 -1 -1 0 0 -4 -1 0 0 0 0 0 0
0 0 0 0 0 0 0 0 0 0 0 0 0 0 0 0 -1 0 0 0 0 0 -1 0 0 0 0 -1 0 -1 -1 -1 0 -2 0 -3 -2 -2 -4 -12 -40 0 0 0 0 0 0
Wind_Speed
28 27 28 29 30 31 31 31 31 31 31 31 30 31 31 31 31 30 30 29 28 27 26 24 23 20 19 15 23 13 6 7 8 19 23 18 19 19 21 15 6 11 19 12 12 11 13
24 25 26 27 30 32 32 31 30 30 30 31 32 32 32 31 31 30 30 29 28 27 26 24 22 19 15 12 17 11 7 5 9 15 20 20 21 22 24 18 12 12 16 13 14 10 11
23 24 25 26 30 31 31 31 29 30 31 33 33 32 31 31 30 29 29 29 29 27 25 23 21 19 19 18 16 9 6 8 9 15 15 19 21 21 22 18 13 15 13 11 10 7 9
23 24 23 25 27 29 29 29 30 32 33 33 33 32 31 30 30 28 27 27 26 25 20 19 18 18 17 16 13 9 6 8 11 14 18 18 21 25 24 17 13 16 19 9 5 5 8
24 24 24 25 27 26 26 27 29 32 34 34 33 32 31 30 28 26 24 22 22 13 10 11 15 18 17 12 8 9 10 8 11 14 16 14 24 25 23 25 20 16 17 7 7 8 7
23 23 25 26 26 26 26 25 27 24 34 34 32 31 29 27 25 24 20 18 15 8 10 12 22 16 19 8 7 9 9 9 10 11 12 18 20 24 26 25 23 17 24 7 10 9 10
25 25 25 26 27 26 25 26 27 25 26 33 29 28 26 25 23 20 17 14 15 15 15 16 10 21 8 5 7 10 10 11 12 14 17 18 21 26 24 28 31 24 21 23 5 1 7
26 26 26 26 26 26 26 28 30 25 23 20 24 24 24 23 21 19 17 20 18 20 18 20 18 19 10 6 7 10 10 12 18 21 20 18 28 23 26 27 30 31 25 14 14 6 14
26 28 27 27 26 25 25 26 26 25 20 13 17 21 23 22 21 17 19 19 20 19 13 8 18 18 15 12 13 11 13 16 19 23 25 23 22 23 25 25 26 29 25 13 17 13 21
26 28 28 27 26 25 25 26 24 23 18 12 11 16 17 20 15 17 14 18 21 17 13 6 13 18 12 16 18 16 22 17 19 25 24 27 20 22 25 25 28 25 28 12 30 17 14
27 28 28 27 27 26 27 24 18 17 8 11 12 12 12 12 18 10 19 21 20 13 17 6 5 6 14 18 13 17 22 22 21 23 23 26 22 23 27 27 26 25 18 19 20 29 22
26 28 29 28 27 26 27 24 7 5 11 7 10 11 12 13 11 8 16 13 10 9 16 8 6 13 14 22 14 15 21 23 23 22 25 24 25 23 26 25 24 21 18 24 26 32 34
27 28 29 28 27 26 26 9 16 11 3 2 7 10 14 14 13 1 11 15 8 16 12 9 9 12 15 16 15 17 21 20 21 21 25 21 23 25 26 24 23 19 21 25 28 33 31
28 29 30 28 26 26 29 18 19 12 4 0 5 9 9 10 8 10 13 16 14 18 14 14 21 24 16 14 14 18 20 22 24 28 21 25 26 22 27 29 23 27 28 26 25 27 26
28 28 30 28 27 26 32 24 23 16 12 1 9 10 9 15 12 12 13 20 21 16 20 17 25 27 23 13 15 19 21 21 19 22 21 24 22 18 24 30 25 26 39 38 32 26 26
28 28 30 30 27 26 28 26 23 18 11 3 10 9 12 11 11 13 12 17 16 15 16 23 20 19 21 14 22 23 19 17 19 21 21 20 20 25 25 28 29 28 32 38 31 30 28
27 27 30 30 28 25 26 27 25 20 13 4 10 11 15 10 13 14 4 17 14 15 15 15 11 21 21 17 21 17 17 17 22 23 21 20 20 21 23 29 30 29 31 35 33 32 28
27 27 30 30 30 26 27 27 25 22 17 13 11 12 18 14 12 15 15 15 15 12 15 16 16 8 18 22 14 15 15 16 18 23 27 23 24 20 26 21 24 27 30 32 34 35 33
26 26 29 31 32 32 26 26 25 22 14 10 16 19 16 13 10 14 13 13 15 13 15 15 15 18 16 16 21 23 16 14 14 16 19 21 25 19 23 25 28 31 29 28 35 34 34
25 25 29 30 32 31 26 25 23 21 14 13 14 15 20 19 15 17 12 13 14 15 13 14 15 13 11 13 14 19 15 16 15 16 18 21 27 25 22 21 26 33 30 30 31 31 27
24 25 29 31 31 30 25 24 23 20 15 14 15 18 16 17 20 20 10 14 14 14 13 16 15 16 16 16 15 16 14 13 14 15 21 22 24 22 17 17 17 21 27 29 35 35 29
23 24 27 30 29 28 24 23 22 20 17 17 17 18 21 21 17 18 17 15 13 14 17 13 12 16 19 14 17 14 14 18 17 17 19 21 26 24 23 21 20 23 22 25 26 27 25
25 23 26 29 28 27 23 22 22 20 16 16 18 18 14 17 17 18 17 16 16 14 14 14 14 13 10 14 16 15 17 16 17 22 19 22 23 26 33 24 28 32 28 26 23 25 27
25 22 24 27 26 25 23 21 20 18 16 14 13 15 15 18 16 19 20 21 21 20 14 14 15 17 14 15 15 16 14 16 19 20 21 22 24 24 28 25 37 24 22 23 22 21 17
27 20 23 25 24 24 22 20 19 18 16 14 15 14 15 15 18 18 19 20 20 19 19 14 15 15 11 12 13 13 14 16 17 20 22 24 24 27 33 29 22 24 23 23 25 23 20
23 20 21 23 23 23 20 20 19 17 17 15 16 13 15 15 15 16 16 15 14 17 17 18 16 14 11 15 15 17 18 18 18 18 19 19 22 27 24 33 33 12 14 18 20 29 20
23 19 22 23 22 21 19 19 18 18 17 17 16 15 15 13 15 14 11 12 14 14 15 15 15 16 16 16 9 17 18 19 20 20 18 19 21 24 25 26 23 16 14 15 25 20 17
20 17 14 15 20 20 19 18 18 18 17 16 16 16 15 14 14 12 12 12 13 11 12 13 12 12 11 12 12 11 10 13 20 22 18 18 20 24 27 26 29 14 16 21 13 9 11
19 16 9 16 18 18 18 18 18 18 17 17 15 14 16 14 17 13 10 11 11 15 13 12 16 14 16 14 14 11 11 10 7 19 16 21 20 23 21 20 14 12 18 11 11 12 15
Wind_Direction
25 25 19 11 4 356 351 349 348 346 342 340 338 330 322 314 307 300 292 289 287 286 282 283 282 288 282 285 270 297 280 242 219 234 235 239 240 245 250 261 281 292 260 310 308 355 10
40 34 29 21 9 355 353 356 358 353 347 340 331 322 314 307 304 299 292 286 285 282 280 278 277 281 286 295 294 296 263 204 203 234 236 238 242 243 254 260 269 284 278 302 303 342 14
43 38 32 25 13 5 2 1 1 355 349 337 327 320 312 307 303 303 295 285 278 279 276 275 275 274 278 287 288 286 255 226 199 238 237 241 247 249 252 259 264 275 282 309 332 14 13
41 35 33 27 20 14 11 8 2 353 346 336 323 316 308 304 303 302 296 285 280 276 281 277 278 272 285 282 276 268 247 231 233 243 247 249 252 246 254 263 260 267 269 280 335 13 344
38 34 31 27 21 19 17 14 7 356 343 330 324 318 313 308 305 304 302 295 291 305 301 290 283 267 286 280 263 256 251 231 234 244 250 254 249 244 248 248 252 257 260 263 291 300 343
36 34 29 25 22 20 20 19 15 16 347 327 319 320 316 314 308 304 303 301 315 342 307 290 276 276 273 260 247 252 247 240 232 233 248 249 246 243 244 241 240 247 253 248 278 282 293
33 31 29 26 22 22 24 21 18 20 13 336 311 312 319 319 314 305 310 327 313 307 278 282 289 276 292 226 239 247 242 234 238 236 242 241 241 239 242 239 239 254 255 261 249 120 277
32 29 28 26 25 24 25 20 16 23 24 26 301 304 319 317 316 306 319 309 313 300 298 269 270 273 274 234 229 243 232 233 239 238 239 241 242 245 243 240 247 245 243 247 265 267 266
31 28 27 27 26 26 26 24 24 27 35 43 38 340 315 308 314 341 316 315 315 311 311 294 266 257 258 236 247 232 222 247 238 238 236 242 248 246 242 238 239 241 239 236 250 262 253
29 27 26 26 26 26 25 23 26 28 36 47 56 43 27 349 26 356 357 327 309 316 321 317 266 263 239 244 251 235 233 249 243 238 237 244 252 240 239 237 235 239 238 240 236 245 251
27 25 24 25 24 24 21 24 29 32 36 51 58 65 66 59 5 44 334 303 291 311 304 346 256 261 244 235 237 229 232 243 244 240 238 239 241 238 236 237 236 243 243 246 243 234 246
25 23 22 23 22 23 22 24 10 333 46 66 69 75 70 61 65 113 358 178 3 319 306 314 305 252 226 242 240 218 231 246 247 243 239 248 245 240 236 238 236 261 229 240 245 239 240
23 21 20 21 21 23 21 323 301 293 302 97 89 74 62 54 41 324 124 135 9 309 310 311 288 238 226 233 227 220 228 234 239 232 233 246 237 235 238 234 235 245 235 235 242 239 242
21 19 18 19 21 22 17 305 303 292 282 148 88 72 83 94 131 118 122 165 342 296 324 296 239 230 233 227 229 221 228 233 241 235 234 237 229 233 233 236 238 236 232 234 240 240 241
19 18 16 17 19 21 343 309 307 297 282 189 70 85 124 56 85 140 163 231 263 316 275 285 228 233 231 234 232 225 231 240 239 242 251 233 236 236 239 240 246 234 234 226 253 247 242
16 16 13 13 17 20 314 312 308 299 286 209 73 109 81 84 136 149 177 336 324 305 285 237 226 243 228 239 237 229 234 252 247 245 254 258 234 240 242 244 244 246 237 237 245 245 239
14 14 10 11 14 22 310 313 311 303 288 142 98 98 56 189 169 197 278 15 347 351 248 250 237 247 241 238 237 241 253 257 252 248 252 258 254 244 244 236 236 241 240 241 242 246 237
12 11 8 7 8 17 313 316 314 310 297 94 121 82 31 162 153 280 321 297 285 249 262 256 277 297 249 234 247 253 256 266 262 253 246 256 253 247 239 246 249 246 241 240 242 241 250
10 11 7 3 355 349 313 315 316 314 297 118 76 64 80 169 139 35 352 355 325 359 252 272 269 275 263 245 248 253 262 272 269 260 255 253 249 243 248 251 245 242 243 250 244 250 252
8 10 5 1 348 333 313 313 313 313 292 114 94 89 82 87 117 70 333 307 7 353 337 297 271 272 275 268 274 246 259 263 271 268 266 257 254 249 262 258 245 238 245 245 248 246 255
7 6 360 353 340 333 312 314 312 310 294 108 96 89 110 100 92 88 16 293 303 334 331 270 276 262 266 268 269 256 254 265 271 275 263 259 258 259 267 268 261 244 246 248 244 245 263
6 4 357 346 328 333 311 311 314 310 297 102 114 102 95 97 118 113 113 357 325 317 290 313 306 272 263 277 279 269 278 256 265 274 266 262 258 259 257 264 264 257 256 256 252 251 253
2 1 355 343 324 323 309 308 315 315 302 4 85 98 138 117 112 104 112 119 90 319 326 317 302 304 317 289 289 292 289 289 284 268 271 264 263 257 250 262 261 257 256 256 256 253 252
356 359 354 333 318 322 308 303 309 311 312 280 293 174 151 105 118 106 105 103 103 89 16 325 314 294 307 299 296 290 299 292 283 276 275 267 262 263 258 264 254 263 266 260 254 254 262
351 359 353 317 321 327 306 300 300 300 299 289 307 241 186 116 101 111 106 103 104 114 115 331 327 318 329 311 306 303 295 291 287 278 271 269 265 263 255 259 270 264 264 257 250 251 257
360 1 349 305 328 325 300 297 297 291 292 267 331 238 219 153 79 94 105 123 116 101 110 102 125 181 333 302 306 290 287 288 285 283 279 275 268 262 264 257 257 286 264 274 265 253 251
358 2 327 319 333 331 293 293 294 292 288 271 325 275 205 160 48 102 82 58 71 87 72 82 83 88 152 146 8 302 295 294 283 281 278 269 267 262 261 262 269 275 281 281 256 260 254
0 1 6 9 337 336 288 290 287 294 292 276 344 297 238 198 45 93 59 68 60 67 43 35 66 50 74 56 81 48 2 322 290 281 283 274 269 265 262 263 262 275 279 269 280 279 272
356 357 45 353 341 341 289 283 283 288 288 283 22 32 246 150 341 23 64 52 47 356 35 56 355 357 339 338 344 23 2 20 64 293 286 274 277 275 276 275 288 286 290 288 286 279 280